GW1476 Weather Reports


time (UTC)temp
C
wind
direction
speed
KPH
gust
KPH
rain 1hr
cm
rain 24hr
cm
rain mn
cm
humidity
%
barometer
mb
20260510182738 26 68 6.4 8.0 0.00 0.00 0.00 53 1016.5
20260510182115 26 248 3.2 6.4 0.00 0.00 0.00 54 1016.5
20260510181544 26 0 4.8 6.4 0.00 0.00 0.00 54 1016.5
20260510180934 26 68 4.8 4.8 0.00 0.00 0.00 54 1016.5
20260510180317 26 293 1.6 4.8 0.00 0.00 0.00 54 1016.5
20260510175741 25 315 1.6 3.2 0.00 0.00 0.00 54 1016.5
20260510175152 25 203 3.2 8.0 0.00 0.00 0.00 54 1016.5
20260510173950 26 0 6.4 11.3 0.00 0.00 0.00 52 1016.5
20260510173326 26 23 3.2 6.4 0.00 0.00 0.00 52 1016.5
20260510172724 26 68 6.4 6.4 0.00 0.00 0.00 51 1016.5
20260510172111 26 338 6.4 9.7 0.00 0.00 0.00 51 1016.5
20260510170336 27 293 6.4 9.7 0.00 0.00 0.00 48 1016.5
20260510165751 27 225 4.8 4.8 0.00 0.00 0.00 50 1016.5
20260510164545 27 315 6.4 12.9 0.00 0.00 0.00 51 1016.5
20260510163944 27 293 4.8 6.4 0.00 0.00 0.00 51 1016.5
20260510162724 27 338 8.0 8.0 0.00 0.00 0.00 54 1016.5
20260510161529 26 225 4.8 8.0 0.00 0.00 0.00 54 1016.9
20260510160950 27 135 6.4 12.9 0.00 0.00 0.00 52 1016.9
20260510155736 26 23 6.4 6.4 0.00 0.00 0.00 55 1016.9
20260510155150 26 0 6.4 12.9 0.00 0.00 0.00 57 1016.9
20260510154523 26 158 4.8 8.0 0.00 0.00 0.00 56 1016.9
20260510153949 25 248 3.2 8.0 0.00 0.00 0.00 57 1016.9
20260510153322 25 180 6.4 9.7 0.00 0.00 0.00 57 1017.2
20260510152733 26 23 3.2 4.8 0.00 0.00 0.00 57 1016.9
20260510152149 25 23 4.8 9.7 0.00 0.00 0.00 60 1017.2
20260510151535 24 225 1.6 6.4 0.00 0.00 0.00 61 1017.2
20260510150914 25 270 3.2 8.0 0.00 0.00 0.00 60 1017.2
20260510150339 24 203 8.0 8.0 0.00 0.00 0.00 62 1017.2
20260510145717 24 90 4.8 4.8 0.00 0.00 0.00 64 1017.2
20260510145138 24 180 3.2 6.4 0.00 0.00 0.00 65 1017.6
20260510144510 23 90 1.6 3.2 0.00 0.00 0.00 69 1017.6
20260510143926 23 180 3.2 6.4 0.00 0.00 0.00 69 1017.6
20260510143335 23 158 3.2 3.2 0.00 0.00 0.00 74 1017.6
20260510142713 21 203 3.2 3.2 0.00 0.00 0.00 78 1017.6
20260510142128 20 225 3.2 3.2 0.00 0.00 0.00 83 1017.6
20260510140929 21 338 1.6 3.2 0.00 0.00 0.00 79 1017.6
20260510135715 20 45 3.2 3.2 0.00 0.00 0.00 79 1017.6
20260510135116 21 158 0.0 1.6 0.00 0.00 0.00 82 1017.2
20260510134511 20 113 0.0 1.6 0.00 0.00 0.00 82 1017.2
20260510133348 18 270 0.0 0.0 0.00 0.00 0.00 86 1017.2
20260510132749 18 23 0.0 0.0 0.00 0.00 0.00 86 1017.2
20260510131517 17 203 0.0 0.0 0.00 0.00 0.00 89 1017.2
20260510130920 16 180 3.2 4.8 0.00 0.00 0.00 93 1017.6
20260510130331 16 180 3.2 3.2 0.00 0.00 0.00 95 1017.6
20260510125751 15 225 0.0 3.2 0.00 0.00 0.00 95 1017.6
20260510125144 15 203 1.6 1.6 0.00 0.00 0.00 95 1017.6
20260510123308 14 225 0.0 0.0 0.00 0.00 0.00 98 1017.6
20260510122729 13 203 0.0 0.0 0.00 0.00 0.00 99 1017.6
20260510122133 13 180 0.0 3.2 0.00 0.00 0.00 99 1017.6
20260510121511 12 225 0.0 3.2 0.00 0.00 0.00 99 1017.6
20260510120949 12 203 0.0 1.6 0.00 0.00 0.00 99 1017.2
20260510115743 11 225 0.0 0.0 0.00 0.00 0.00 99 1017.6
20260510114518 10 203 0.0 0.0 0.00 0.00 0.00 99 1017.2
20260510113914 10 270 0.0 0.0 0.00 0.00 0.00 99 1017.2
20260510112710 9 338 0.0 0.0 0.00 0.00 0.00 99 1016.9
20260510112131 9 315 0.0 0.0 0.00 0.00 0.00 99 1016.5
20260510111532 9 203 0.0 0.0 0.00 0.00 0.00 99 1016.9
20260510110933 9 315 0.0 1.6 0.00 0.00 0.00 99 1016.5
20260510110312 9 203 0.0 0.0 0.00 0.00 0.00 99 1016.5
20260510105747 8 225 0.0 0.0 0.00 0.00 0.00 99 1016.5
20260510105143 8 0 0.0 0.0 0.00 0.00 0.00 99 1016.5
20260510103934 8 293 0.0 0.0 0.00 0.00 0.00 99 1016.2
20260510103324 8 293 0.0 0.0 0.00 0.00 0.00 99 1016.2
20260510102717 8 0 0.0 1.6 0.00 0.00 0.00 99 1016.2
20260510102142 8 270 0.0 0.0 0.00 0.00 0.00 99 1016.2
20260510101510 8 225 0.0 0.0 0.00 0.00 0.00 99 1016.2
20260510100351 8 248 0.0 0.0 0.00 0.00 0.00 99 1015.9
20260510095710 8 270 0.0 0.0 0.00 0.00 0.00 99 1015.9
20260510095139 8 270 0.0 0.0 0.00 0.00 0.00 99 1015.9
20260510094539 8 203 0.0 0.0 0.00 0.00 0.00 99 1015.5
20260510093908 8 225 0.0 0.0 0.00 0.00 0.00 99 1015.5
20260510093327 8 225 0.0 0.0 0.00 0.00 0.00 99 1015.5
20260510092725 8 158 0.0 0.0 0.00 0.00 0.00 99 1015.5
20260510092129 8 203 0.0 0.0 0.00 0.00 0.00 99 1015.5
20260510091537 8 0 0.0 0.0 0.00 0.00 0.00 99 1015.5
20260510090909 8 270 0.0 0.0 0.00 0.00 0.00 99 1015.5
20260510090341 8 203 0.0 0.0 0.00 0.00 0.00 99 1015.5
20260510085716 8 180 0.0 0.0 0.00 0.00 0.00 99 1015.2
20260510083948 8 270 0.0 0.0 0.00 0.00 0.00 99 1015.2
20260510083352 9 203 0.0 0.0 0.00 0.00 0.00 99 1015.2
20260510082744 8 225 0.0 0.0 0.00 0.00 0.00 99 1015.2
20260510082119 8 293 0.0 0.0 0.00 0.00 0.00 99 1015.2
20260510081549 8 270 0.0 0.0 0.00 0.00 0.00 99 1015.2
20260510080918 8 248 0.0 0.0 0.00 0.00 0.00 99 1015.2
20260510080327 9 203 0.0 0.0 0.00 0.00 0.00 99 1015.2
20260510075750 8 248 0.0 0.0 0.00 0.00 0.00 99 1015.2
20260510074542 8 225 0.0 0.0 0.00 0.00 0.00 99 1015.2
20260510073942 8 270 0.0 0.0 0.00 0.00 0.00 99 1014.9
20260510073347 8 293 0.0 0.0 0.00 0.00 0.00 99 1015.2
20260510072734 9 248 0.0 0.0 0.00 0.00 0.00 99 1014.9
20260510072126 9 270 0.0 0.0 0.00 0.00 0.00 99 1014.9
20260510071546 8 293 0.0 0.0 0.00 0.00 0.00 99 1014.9
20260510070925 9 203 0.0 0.0 0.00 0.00 0.00 99 1014.9
20260510070312 9 270 0.0 0.0 0.00 0.00 0.00 99 1014.9
20260510065734 9 315 0.0 0.0 0.00 0.00 0.00 99 1014.9
20260510065141 9 248 0.0 0.0 0.00 0.00 0.00 99 1014.9
20260510063923 9 293 0.0 0.0 0.00 0.00 0.00 99 1014.9
20260510063330 9 315 0.0 0.0 0.00 0.00 0.00 99 1014.9
20260510062709 10 0 0.0 0.0 0.00 0.00 0.00 99 1014.9
20260510062146 10 225 0.0 0.0 0.00 0.00 0.00 99 1014.9
20260510061534 10 270 0.0 0.0 0.00 0.00 0.00 99 1014.9
20260510060949 10 158 3.2 3.2 0.00 0.00 0.00 99 1014.9
20260510060341 10 270 0.0 0.0 0.00 0.00 0.00 99 1014.9
20260510055725 9 338 0.0 0.0 0.00 0.00 0.00 99 1015.2
20260510055118 10 270 0.0 0.0 0.00 0.00 0.00 99 1014.9
20260510054538 10 270 0.0 0.0 0.00 0.00 0.00 99 1015.2
20260510053314 10 315 0.0 0.0 0.00 0.00 0.00 99 1015.2
20260510052149 10 248 0.0 0.0 0.00 0.00 0.00 99 1015.2
20260510051548 10 270 0.0 0.0 0.00 0.00 0.00 99 1015.2
20260510050912 10 248 0.0 1.6 0.00 0.00 0.00 99 1015.2
20260510050332 10 270 0.0 0.0 0.00 0.00 0.00 99 1015.2
20260510045721 10 225 0.0 0.0 0.00 0.00 0.00 99 1015.2
20260510045110 10 248 0.0 0.0 0.00 0.00 0.00 99 1015.2
20260510043931 10 203 0.0 0.0 0.00 0.00 0.00 99 1015.2
20260510043338 10 113 0.0 0.0 0.00 0.00 0.00 99 1015.2
20260510042711 10 203 0.0 0.0 0.00 0.00 0.00 99 1015.2
20260510042145 10 225 0.0 0.0 0.00 0.00 0.00 99 1015.2
20260510041533 11 203 0.0 0.0 0.00 0.00 0.00 99 1015.2
20260510040924 11 270 0.0 0.0 0.00 0.00 0.00 99 1015.2
20260510040343 10 315 0.0 0.0 0.00 0.00 0.00 99 1015.2
20260510035747 11 225 0.0 1.6 0.00 0.00 0.00 99 1015.2
20260510035123 11 225 0.0 0.0 0.00 0.00 0.00 99 1015.2
20260510034541 11 203 0.0 0.0 0.00 0.00 0.00 99 1015.2
20260510033909 11 225 0.0 0.0 0.00 0.00 0.00 99 1015.2
20260510033316 11 225 0.0 0.0 0.00 0.00 0.00 99 1015.2
20260510032752 11 203 0.0 1.6 0.00 0.00 0.00 99 1014.9
20260510032147 11 203 0.0 0.0 0.00 0.00 0.00 99 1014.9
20260510031524 11 225 0.0 0.0 0.00 0.00 0.00 99 1014.9
20260510030919 11 225 0.0 0.0 0.00 0.00 0.00 99 1014.9
20260510030328 11 225 0.0 0.0 0.00 0.00 0.00 99 1014.9
20260510025732 11 225 0.0 0.0 0.00 0.00 0.00 99 1014.5
20260510025122 12 225 0.0 0.0 0.00 0.00 0.00 99 1014.5
20260510023940 12 203 0.0 0.0 0.00 0.00 0.00 99 1014.5
20260510022739 12 225 0.0 0.0 0.00 0.00 0.00 99 1014.2
20260510021510 12 270 0.0 0.0 0.00 0.00 0.00 99 1014.2
20260510020952 12 225 0.0 0.0 0.00 0.00 0.00 99 1013.8
20260510015740 13 248 0.0 0.0 0.00 0.00 0.00 99 1013.8
20260510015143 13 203 0.0 0.0 0.00 0.00 0.00 99 1013.8
20260510014511 13 203 0.0 0.0 0.00 0.00 0.00 99 1013.5
20260510013946 13 203 0.0 0.0 0.00 0.00 0.00 99 1013.5
20260510012725 14 225 0.0 3.2 0.00 0.00 0.00 99 1013.5
20260510012131 14 180 1.6 1.6 0.00 0.00 0.00 99 1013.5
20260510011556 15 203 0.0 0.0 0.00 0.00 0.00 96 1013.2
20260510010951 15 315 0.0 1.6 0.00 0.00 0.00 94 1013.2
20260510010348 15 225 0.0 3.2 0.00 0.00 0.00 95 1013.2
20260510005143 15 203 0.0 1.6 0.00 0.00 0.00 91 1012.8
20260510004550 16 203 0.0 0.0 0.00 0.00 0.00 88 1012.8
20260510003307 17 180 0.0 0.0 0.00 0.00 0.00 85 1012.8
20260510002716 17 315 3.2 3.2 0.00 0.00 0.00 84 1012.8
20260510001511 17 180 4.8 4.8 0.00 0.00 0.00 83 1012.5
20260510000943 18 203 1.6 3.2 0.00 0.00 0.00 79 1012.5
20260510000349 19 225 0.0 3.2 0.00 0.00 0.00 76 1012.5
20260509235710 20 203 0.0 1.6 0.00 0.00 0.00 72 1012.5
20260509235126 21 338 1.6 1.6 0.00 0.00 0.00 67 1012.1
20260509234543 21 23 4.8 4.8 0.00 0.00 0.00 66 1012.1
20260509233949 22 338 1.6 3.2 0.00 0.00 0.00 66 1012.1
20260509233339 22 45 1.6 4.8 0.00 0.00 0.00 65 1012.5
20260509232130 23 270 3.2 3.2 0.00 0.00 0.00 62 1012.1
20260509231509 23 203 1.6 3.2 0.00 0.00 0.00 63 1012.5
20260509230951 23 23 4.8 6.4 0.00 0.00 0.00 62 1012.1
20260509230332 23 113 8.0 8.0 0.00 0.00 0.00 62 1012.1
20260509225146 23 270 3.2 3.2 0.00 0.00 0.00 62 1012.1
20260509224535 23 90 1.6 4.8 0.00 0.00 0.00 62 1012.1
20260509223928 23 315 1.6 6.4 0.00 0.00 0.00 62 1012.1
20260509223343 23 0 4.8 8.0 0.00 0.00 0.00 62 1012.1
20260509222130 22 203 6.4 6.4 0.00 0.00 0.00 64 1012.5
20260509220918 22 45 4.8 8.0 0.00 0.00 0.00 64 1012.5
20260509220326 22 45 1.6 6.4 0.00 0.00 0.00 63 1012.5
20260509215723 23 338 6.4 6.4 0.00 0.00 0.00 62 1012.5
20260509215134 23 270 6.4 6.4 0.00 0.00 0.00 63 1012.5
20260509214520 23 135 6.4 6.4 0.00 0.00 0.00 62 1012.1
20260509213335 22 113 4.8 8.0 0.00 0.00 0.00 65 1012.5
20260509212739 22 225 4.8 4.8 0.00 0.00 0.00 64 1012.5
20260509212145 22 203 6.4 6.4 0.00 0.00 0.00 64 1012.5
20260509211542 22 203 3.2 4.8 0.00 0.00 0.00 65 1012.5
20260509210931 22 293 4.8 4.8 0.00 0.00 0.00 65 1012.5
20260509210318 21 68 4.8 4.8 0.00 0.00 0.00 65 1012.5
20260509205747 22 68 4.8 4.8 0.00 0.00 0.00 64 1012.5
20260509205134 22 23 9.7 11.3 0.00 0.00 0.00 64 1012.5
20260509204537 22 338 8.0 9.7 0.00 0.00 0.00 64 1012.5
20260509203950 22 68 8.0 9.7 0.00 0.00 0.00 64 1012.5
20260509203321 22 270 6.4 6.4 0.00 0.00 0.00 64 1012.1
20260509202753 22 203 4.8 9.7 0.00 0.00 0.00 64 1012.1
20260509202126 22 23 6.4 6.4 0.00 0.00 0.00 63 1012.1
20260509201532 22 338 4.8 6.4 0.00 0.00 0.00 63 1012.1
20260509200939 22 90 4.8 4.8 0.00 0.00 0.00 64 1012.1
20260509200309 21 203 8.0 8.0 0.00 0.00 0.00 65 1012.1
20260509195125 22 248 4.8 8.0 0.00 0.00 0.00 64 1012.1
20260509193915 22 158 3.2 4.8 0.00 0.00 0.00 64 1012.1
20260509193337 22 23 3.2 6.4 0.00 0.00 0.00 64 1012.1
20260509192748 21 248 1.6 6.4 0.00 0.00 0.00 65 1012.1
20260509191528 21 293 3.2 4.8 0.00 0.00 0.00 66 1012.1
20260509190313 21 338 4.8 9.7 0.00 0.00 0.00 64 1012.1
20260509185750 21 225 4.8 6.4 0.00 0.00 0.00 65 1012.1
20260509185114 21 225 1.6 4.8 0.00 0.00 0.00 63 1012.1
20260509184531 21 0 4.8 6.4 0.00 0.00 0.00 63 1012.1
20260509183936 21 45 6.4 11.3 0.00 0.00 0.00 63 1012.1
20260509183343 22 293 6.4 9.7 0.00 0.00 0.00 60 1012.1